Regional Weather Roundup
Issued by NWS

Home | Current Version | Previous Version | Graphics & Text | Print | Product List | Glossary On
Versions: 1 2 3 4 5 6 7 8 9 10 11 12 13 14 15 16 17 18 19 20 21 22 23 24 25 26 27 28 29 30 31 32 33 34 35 36 37 38 39 40 41 42 43 44 45 46 47 48 49 50
000
ASUS44 KMEG 210310
RWRTN
TENNESSEE HOURLY STATE WEATHER ROUNDUP
NATIONAL WEATHER SERVICE MEMPHIS TN
1000 PM CDT WED SEP 20 2017

TNZ002-004-019-021-049-052-054-088>092-210400-
WEST TENNESSEE

CITY           SKY/WX    TMP DP  RH WIND       PRES   REMARKS
MEMPHIS INTL   CLEAR     81  74  79 S8        29.99R
NWS MEMPHIS      N/A     80 N/A N/A MISG        N/A
JACKSON        CLEAR     75  73  93 S5        30.00R
DYERSBURG      CLEAR     78  73  84 CALM      29.99R
SOMERVILLE     CLEAR     75  73  94 CALM      29.99R
COVINGTON      CLEAR     79  73  83 S5        29.98R
BOLIVAR        CLEAR     75  73  94 CALM      30.00R
PARIS          CLEAR     72  70  94 CALM      29.99R
HUNTINGDON     CLEAR     75  73  94 CALM      29.99R
LEXINGTON      CLEAR     73  72  94 CALM      30.01R FOG
SELMER         CLEAR     75  73  94 S3        30.01R
SAVANNAH       CLEAR     75  73  94 CALM      30.01R
$$

TNZ008-025-027-028-033-062-065-066-210400-
NORTH MIDDLE TENNESSEE

CITY           SKY/WX    TMP DP  RH WIND       PRES   REMARKS
NASHVILLE      CLEAR     77  68  73 SW3       30.03R
PORTLAND       CLEAR     73  72  94 S3        30.03R
CLARKSVILLE    CLEAR     74  70  87 SE3       30.01R
SMYRNA           N/A    N/A N/A N/A MISG        N/A
COOKEVILLE     CLEAR     68  66  94 CALM      30.06R
GALLATIN       CLEAR     75  72  88 CALM      30.05R
CROSSVILLE     CLEAR     65  65 100 CALM      30.12R FOG
$$

TNZ061-075-076-078-094-096-097-210400-
SOUTH MIDDLE TENNESSEE

CITY           SKY/WX    TMP DP  RH WIND       PRES   REMARKS
FAYETTEVILLE   CLEAR     73  72  94 CALM      30.05R
TULLAHOMA      CLEAR     70  66  88 CALM      30.07R
WINCHESTER     CLEAR     72  68  88 CALM        N/A
MCMINNVILLE    CLEAR     70  70 100 CALM      30.07R
COLUMBIA       PTCLDY    73  73 100 CALM      30.02R
SHELBYVILLE    PTCLDY    72  72 100 E3        30.04S
$$

TNZ017-018-042-046-047-210400-
NORTHEAST TENNESSEE

CITY           SKY/WX    TMP DP  RH WIND       PRES   REMARKS
TRI CITIES     CLEAR     65  62  90 N5        30.10R
ELIZABETHTON   CLEAR     64  63  94 CALM      30.11R
$$

TNZ012-013-036-069-073-074-210400-
CENTRAL EAST TENNESSEE

CITY           SKY/WX    TMP DP  RH WIND       PRES   REMARKS
KNOXVILLE      CLEAR     73  67  81 CALM      30.06R
OAK RIDGE      CLEAR     70  67  90 CALM      30.08R
DOWNTOWN KNOXV   N/A     70  68  94 CALM      30.06R FOG
GATLINBURG     CLEAR     66  63  88 CALM      30.07R
MORRISTOWN     CLEAR     70  64  83 CALM      30.08R
JACKSBORO      CLEAR     66  66 100 CALM      30.11R
$$

TNZ083-085-099-210400-
SOUTHEAST TENNESSEE

CITY           SKY/WX    TMP DP  RH WIND       PRES   REMARKS
CHATTANOOGA    PTCLDY    73  69  87 CALM      30.06R
DAYTON         CLEAR     70  70 100 CALM      30.05R
$$

SKY/WX REPORTED AS FAIR MEANS FEW OR NO CLOUDS BELOW
12 THOUSAND FEET.





USA.gov is the U.S. government's official web portal to all federal, state and local government web resources and services.